Regional Weather Roundup
Issued by NWS San Angelo, TX

Home | Current Version | Previous Version | Text Only | Print | Product List | Glossary On
Versions: 1 2 3 4 5 6 7 8 9 10 11 12 13 14 15 16 17 18 19 20 21 22 23 24 25 26 27 28 29 30 31 32 33 34 35 36 37 38 39 40 41 42 43 44 45 46 47 48 49 50
000
ASUS44 KSJT 182310
RWRSJT
WEST CENTRAL TEXAS REGIONAL WEATHER ROUNDUP
NATIONAL WEATHER SERVICE SAN ANGELO TX
500 PM CST THU DEC 18 2014

NOTE: "FAIR" INDICATES FEW OR NO CLOUDS BELOW 12,000 FEET WITH NO
SIGNIFICANT WEATHER AND/OR OBSTRUCTIONS TO VISIBILITY.

TXZ049-054-064>066-071>073-076>078-098-099-113-114-127-128-139-140-
154-155-168>170-190000
...LOCATIONS ACROSS WEST CENTRAL TEXAS...

CITY           SKY/WX    TMP DP  RH WIND       PRES   REMARKS
SAN ANGELO     CLOUDY    64  36  35 NE8       30.02F
ABILENE        MOCLDY    56  40  55 N13       30.07S
DYESS AFB      MOCLDY    56  40  54 NE13      30.06S
JUNCTION       MOCLDY    67  42  40 E3        30.02S
SWEETWATER     PTCLDY    59  33  37 NE9       30.09S
BROWNWOOD      CLOUDY    63  45  51 CALM      30.05S
COLEMAN        CLOUDY    63  44  51 E3        30.04F
SONORA         CLOUDY    63  41  45 CALM      30.07R
OZONA          FAIR      61  36  39 CALM      30.06R
BRADY          CLEAR     61  43  51 N6        30.03S
$$

TEXAS PANHANDLE/OKLAHOMA PANHANDLE

CITY           SKY/WX    TMP DP  RH WIND       PRES   REMARKS
AMARILLO       MOCLDY    41  30  65 NE3       30.10R
BORGER         CLOUDY    38  30  73 E5        30.12R WCI  34
CANADIAN       CLOUDY    42  39  88 E3        30.11R
DALHART        MOCLDY    37  30  75 E8        30.07R WCI  31
DUMAS          CLOUDY    34  29  83 SE3       30.09R
GUYMON         NOT AVBL
HEREFORD       MOCLDY    45  33  63 E7        30.07S
PAMPA          CLOUDY    36  32  86 E6        30.11R WCI  31
PERRYTON       CLOUDY    36  34  94 NE7       30.10S WCI  30
$$

SOUTHERN PANHANDLE/SOUTH PLAINS/ROLLING PLAINS

CITY           SKY/WX    TMP DP  RH WIND       PRES   REMARKS
LUBBOCK        PTCLDY    52  31  44 E7        30.04S
SNYDER         MOCLDY    59  32  36 NE7       30.06S
CHILDRESS      CLOUDY    45  37  73 NW7       30.14R
SEMINOLE       MOCLDY    59  30  33 CALM      30.05S
$$

PERMIAN BASIN

CITY           SKY/WX    TMP DP  RH WIND       PRES   REMARKS
MIDLAND        MOCLDY    62  35  36 E6        30.02F
ODESSA         CLOUDY    62  31  31 MISG      30.02F
WINK           CLOUDY    63  29  27 CALM      30.00F
$$

FAR WEST/SOUTHWEST MOUNTAINS/TRANS PECOS

CITY           SKY/WX    TMP DP  RH WIND       PRES   REMARKS
ALPINE         MOCLDY    57  30  34 S8        30.10S
DRYDEN         NOT AVBL
EL PASO        CLOUDY    54  36  50 SE7       30.04F
FORT STOCKTON  PTCLDY    62  32  32 E7        30.02F
GUADALUPE PASS NOT AVBL
MARFA          CLOUDY    55  28  35 SE6       30.08R
PECOS          MOCLDY    63  32  30 W6        30.01S
$$

DALLAS/FORT WORTH METROPLEX

CITY           SKY/WX    TMP DP  RH WIND       PRES   REMARKS
DFW AIRPORT    CLOUDY    48  44  86 N7        30.12R
FTW MEACHAM    CLOUDY    50  44  80 N7        30.11S
DAL-EXECUTIVE  CLOUDY    50  45  83 N6        30.11S HAZE
GRAND PRAIRIE  CLOUDY    48  46  93 N5        30.13S
ADDISON        NOT AVBL
MESQUITE       CLOUDY    48  46  93 N5        30.12S FOG
LANCASTER      CLOUDY    48  44  85 N5        30.13R
$$

NORTH CENTRAL TEXAS

CITY           SKY/WX    TMP DP  RH WIND       PRES   REMARKS
SHRMAN/DENISON CLOUDY    45  44  99 CALM      30.16R FOG
GAINESVILLE    CLOUDY    46  44  92 NE6       30.15R
BRIDGEPORT     CLOUDY    50  46  87 CALM      30.14R
DENTON         CLOUDY    49  43  80 NE6       30.12S
WAXAHACHIE     CLOUDY    48  47  96 N6        30.13R FOG
GRANBURY       CLOUDY    52  47  83 NE3       30.11S
$$

WESTERN NORTH TEXAS

CITY           SKY/WX    TMP DP  RH WIND       PRES   REMARKS
WICHITA FALLS  CLOUDY    44  42  93 N9        30.13S WCI  39
VERNON         CLOUDY    46  36  66 NE5       30.14S
BRECKENRIDGE   MOCLDY    52  43  71 N8        30.10R
COMANCHE       CLOUDY    61  49  63 E3        30.05S
$$

CENTRAL AND SOUTH CENTRAL TEXAS

CITY           SKY/WX    TMP DP  RH WIND       PRES   REMARKS
AUSTIN/BERGSTM CLOUDY    58  54  86 NE10      30.05S
WACO           CLOUDY    51  47  86 NE9       30.09S
HILLSBORO      CLOUDY    49  45  84 N7        30.10S
TEMPLE         CLOUDY    54  45  71 NE8       30.08R
KILLEEN-GRAY   PTCLDY    56  50  81 E9        30.06R
FORT HOOD      PTCLDY    55  50  83 E9        30.06R
GEORGETOWN     CLOUDY    57  52  82 NE7       30.06R
LAGO VISTA     CLOUDY    59  55  88 E5        30.05S
SAN MARCOS     CLOUDY    61  54  77 NE9       30.04S FOG
NEW BRAUNFELS  CLOUDY    62  56  80 E9        30.02S
RANDOLPH AFB   MOCLDY    63  57  82 NE10      30.03S
SAN ANTONIO    CLOUDY    64  59  83 NE8       30.02S
STINSON        MOCLDY    64  57  78 E8        30.00S
PLEASANTON     NOT AVBL
LA GRANGE      CLOUDY    61  58  88 NE7       30.03S
GIDDINGS       CLOUDY    58  55  89 NE5       30.09S
$$

EAST TEXAS

CITY           SKY/WX    TMP DP  RH WIND       PRES   REMARKS
PARIS          CLOUDY    45  41  87 CALM      30.15R
CLARKSVILLE    NOT AVBL
TYLER          CLOUDY    50  46  86 NE6       30.11R FOG
LONGVIEW       CLOUDY    51  46  83 N5        30.12R
PALESTINE      CLOUDY    52  51  97 NE3       30.11S FOG
NACOGDOCHES    CLOUDY    54  48  82 E3        30.10S
$$

TEXAS HILL COUNTRY AND EDWARDS PLATEAU

CITY           SKY/WX    TMP DP  RH WIND       PRES   REMARKS
LLANO          PTCLDY    64  55  72 SE3       30.07R
HORSESHOE BAY  MOCLDY    60  55  82 SE5       30.04S
KERRVILLE      MOCLDY    65  59  80 E5        30.03R
FREDERICKSBRG  CLOUDY    64  57  79 E5        30.04R
ROCKSPRINGS    MOCLDY    66  52  59 E5        30.04R
HONDO          PTCLDY    68  60  75 E8        30.01S
UVALDE         MOCLDY    61  55  79 E6        30.00S
DEL RIO        MOCLDY    66  54  65 CALM      29.98F
$$

SOUTHEAST TEXAS

CITY           SKY/WX    TMP DP  RH WIND       PRES   REMARKS
COLLEGE STN    CLOUDY    60  55  83 N9        30.06S
CALDWELL       CLOUDY    55  55 100 N3        30.10S FOG
CROCKETT       CLOUDY    57  55  94 N6        30.12R
BRENHAM        CLOUDY    62  57  82 N7        30.06S
HUNTSVILLE     CLOUDY    61  56  83 NE5       30.07R
CONROE         CLOUDY    63  56  78 NE8       30.06R
HOUSTON BUSH   CLOUDY    66  61  84 NE13      30.03S
HOUSTON HOBBY  CLOUDY    69  63  81 NE7       30.02S
PERLAND        CLOUDY    69  64  84 E8        30.03S
WHARTON        CLOUDY    68  64  88 N6        30.02S
$$

THE UPPER TEXAS COAST

CITY           SKY/WX    TMP DP  RH WIND       PRES   REMARKS
ORANGE         MOCLDY    59  57  91 CALM      30.08S FOG
PORT ARTHUR    CLOUDY    60  57  89 NE8       30.05S FOG
GALVESTON      CLOUDY    66  65  96 NE6       30.03S FOG
ANGLETON       RAIN      65  65 100 E7        30.02R FOG
BAY CITY       RAIN      71  70  97 NE5       30.00F
$$

TEXAS COASTAL BEND, RIO GRANDE PLAINS DEEP SOUTH TEXAS

CITY           SKY/WX    TMP DP  RH WIND       PRES   REMARKS
VICTORIA       CLOUDY    66  62  87 N8        30.01S FOG
BEEVILLE       CLOUDY    65  64  97 NE12      29.98S FOG
ROCKPORT       CLOUDY    71  67  87 SE8       29.97S
PORT ARANSAS   CLOUDY    69  67  94 SE5       29.97S FOG
PORT LAVACA    CLOUDY    68  64  87 NE9       30.00S
CORPUS CHRISTI CLOUDY    73  68  84 SE15      29.97R
KINGSVILLE NAS LGT RAIN  71  70  96 S5        29.97R FOG
COTULLA        CLOUDY    67  61  81 E9        29.99S
LAREDO         CLOUDY    64  59  82 CALM      30.01S FOG
BROWNSVILLE    CLOUDY    74  68  81 S13       29.96R
PORT ISABEL    CLOUDY    73  66  78 S13       29.95R
HEBBRONVILLE   CLOUDY    63  62  95 NW8       29.99S
MCALLEN        LGT RAIN  65  62  90 W5        29.97S FOG
WESLACO        LGT RAIN  68  63  83 CALM      29.96S
FALFURRIAS     CLOUDY    71  68  90 CALM      29.96S
EDINBURG       DRIZZLE   72  65  81 NW3       29.97S
$$



USA.gov is the U.S. government's official web portal to all federal, state and local government web resources and services.